| time (UTC) | temp F | wind direction | speed knots | gust knots | rain 1hr in | rain 24hr in | rain mn in | humidity % | barometer mb |
| 20260903121606 | 73 | 285 | 6.1 | 11.3 | 0.00 | 0.03 | 0.00 | 78 | 1018.3 |
| 20260903121059 | 73 | 304 | 6.1 | 11.3 | 0.00 | 0.03 | 0.00 | 79 | 1018.4 |
| 20260903120558 | 72 | 312 | 4.3 | 13.0 | 0.00 | 0.03 | 0.00 | 81 | 1018.4 |
| 20260903115558 | 72 | 269 | 8.7 | 13.9 | 0.00 | 0.03 | 0.00 | 81 | 1018.4 |
| 20260903115102 | 71 | 311 | 5.2 | 11.3 | 0.00 | 0.03 | 0.00 | 81 | 1018.4 |
| 20260903114605 | 72 | 273 | 7.0 | 11.3 | 0.00 | 0.03 | 0.00 | 79 | 1018.3 |
| 20260903114059 | 73 | 300 | 6.1 | 11.3 | 0.00 | 0.03 | 0.00 | 78 | 1018.4 |
| 20260903113558 | 73 | 290 | 6.1 | 12.2 | 0.00 | 0.03 | 0.00 | 77 | 1018.3 |
| 20260903113103 | 74 | 262 | 7.0 | 12.2 | 0.00 | 0.03 | 0.00 | 77 | 1018.3 |
| 20260903112558 | 73 | 289 | 8.7 | 12.2 | 0.00 | 0.03 | 0.00 | 78 | 1018.3 |
| 20260903112058 | 73 | 304 | 7.0 | 12.2 | 0.00 | 0.03 | 0.00 | 78 | 1018.4 |
| 20260903111608 | 72 | 302 | 6.1 | 12.2 | 0.00 | 0.03 | 0.00 | 79 | 1018.3 |
| 20260903111057 | 72 | 323 | 7.8 | 11.3 | 0.00 | 0.03 | 0.00 | 80 | 1018.4 |
| 20260903110556 | 71 | 281 | 7.0 | 12.2 | 0.00 | 0.03 | 0.00 | 83 | 1018.4 |
| 20260903110106 | 70 | 300 | 5.2 | 13.0 | 0.00 | 0.03 | 0.00 | 84 | 1018.5 |
| 20260903105618 | 70 | 306 | 7.0 | 13.0 | 0.00 | 0.03 | 0.00 | 83 | 1018.5 |
| 20260903105100 | 70 | 343 | 3.5 | 12.2 | 0.00 | 0.03 | 0.00 | 84 | 1018.4 |
| 20260903104630 | 70 | 292 | 4.3 | 12.2 | 0.00 | 0.03 | 0.00 | 82 | 1018.4 |
| 20260903104102 | 70 | 269 | 4.3 | 12.2 | 0.00 | 0.03 | 0.00 | 80 | 1018.3 |
| 20260903103559 | 71 | 301 | 5.2 | 12.2 | 0.00 | 0.03 | 0.00 | 80 | 1018.1 |
| 20260903103108 | 71 | 279 | 6.1 | 10.4 | 0.00 | 0.03 | 0.00 | 80 | 1018.1 |
| 20260903102559 | 71 | 260 | 4.3 | 12.2 | 0.00 | 0.03 | 0.00 | 79 | 1018.1 |
| 20260903102057 | 71 | 290 | 5.2 | 12.2 | 0.00 | 0.03 | 0.00 | 79 | 1018.1 |
| 20260903101607 | 71 | 311 | 7.8 | 12.2 | 0.00 | 0.03 | 0.00 | 79 | 1018.2 |
| 20260903101058 | 70 | 360 | 4.3 | 12.2 | 0.00 | 0.03 | 0.00 | 80 | 1018.3 |
| 20260903100558 | 70 | 360 | 4.3 | 11.3 | 0.00 | 0.03 | 0.00 | 82 | 1018.4 |
| 20260903100106 | 70 | 297 | 5.2 | 11.3 | 0.00 | 0.03 | 0.00 | 83 | 1018.5 |
| 20260903095559 | 70 | 298 | 6.1 | 11.3 | 0.00 | 0.03 | 0.00 | 82 | 1018.5 |
| 20260903095103 | 70 | 289 | 4.3 | 10.4 | 0.00 | 0.03 | 0.00 | 82 | 1018.7 |
| 20260903094616 | 69 | 267 | 4.3 | 13.9 | 0.00 | 0.03 | 0.00 | 83 | 1018.6 |
| 20260903094059 | 69 | 302 | 6.1 | 13.9 | 0.00 | 0.03 | 0.00 | 82 | 1018.6 |
| 20260903093602 | 69 | 295 | 7.0 | 13.9 | 0.00 | 0.03 | 0.00 | 81 | 1018.6 |
| 20260903093109 | 70 | 284 | 7.8 | 13.9 | 0.00 | 0.03 | 0.00 | 81 | 1018.5 |
| 20260903092600 | 69 | 278 | 7.0 | 13.0 | 0.00 | 0.03 | 0.00 | 82 | 1018.5 |
| 20260903092058 | 69 | 273 | 7.0 | 13.0 | 0.00 | 0.03 | 0.00 | 81 | 1018.4 |
| 20260903091609 | 69 | 273 | 7.0 | 12.2 | 0.00 | 0.03 | 0.00 | 81 | 1018.6 |
| 20260903091100 | 69 | 278 | 4.3 | 13.0 | 0.00 | 0.03 | 0.00 | 82 | 1018.6 |
| 20260903090602 | 68 | 360 | 6.1 | 13.0 | 0.00 | 0.03 | 0.00 | 81 | 1018.5 |
| 20260903090108 | 68 | 284 | 6.1 | 13.0 | 0.00 | 0.03 | 0.00 | 82 | 1018.7 |
| 20260903085558 | 68 | 239 | 6.1 | 14.8 | 0.00 | 0.06 | 0.00 | 82 | 1018.6 |
| 20260903085059 | 68 | 360 | 7.0 | 14.8 | 0.00 | 0.06 | 0.00 | 82 | 1018.6 |
| 20260903084605 | 68 | 255 | 7.8 | 14.8 | 0.00 | 0.06 | 0.00 | 82 | 1018.5 |
| 20260903084059 | 68 | 288 | 7.0 | 13.9 | 0.00 | 0.06 | 0.00 | 83 | 1018.6 |
| 20260903083602 | 68 | 295 | 7.8 | 13.9 | 0.00 | 0.06 | 0.00 | 83 | 1018.5 |
| 20260903083108 | 68 | 257 | 7.0 | 13.9 | 0.00 | 0.06 | 0.00 | 83 | 1018.5 |
| 20260903082559 | 69 | 294 | 6.1 | 14.8 | 0.00 | 0.06 | 0.00 | 83 | 1018.5 |
| 20260903082102 | 69 | 309 | 5.2 | 14.8 | 0.00 | 0.06 | 0.00 | 83 | 1018.5 |
| 20260903081630 | 69 | 281 | 7.0 | 14.8 | 0.00 | 0.06 | 0.00 | 82 | 1018.4 |
| 20260903081100 | 69 | 293 | 7.0 | 12.2 | 0.00 | 0.06 | 0.00 | 83 | 1018.5 |
| 20260903080559 | 69 | 307 | 7.0 | 12.2 | 0.00 | 0.06 | 0.00 | 83 | 1018.4 |
| 20260903080111 | 69 | 223 | 5.2 | 11.3 | 0.00 | 0.06 | 0.00 | 84 | 1018.5 |
| 20260903075600 | 68 | 290 | 6.1 | 10.4 | 0.00 | 0.07 | 0.00 | 83 | 1018.3 |
| 20260903075059 | 69 | 302 | 3.5 | 9.6 | 0.00 | 0.07 | 0.00 | 84 | 1018.2 |
| 20260903074617 | 69 | 360 | 3.5 | 8.7 | 0.00 | 0.07 | 0.00 | 84 | 1018.3 |
| 20260903074100 | 69 | 267 | 1.7 | 7.8 | 0.00 | 0.07 | 0.00 | 83 | 1018.2 |
| 20260903073559 | 69 | 267 | 3.5 | 7.8 | 0.00 | 0.07 | 0.00 | 83 | 1018.2 |
| 20260903073124 | 68 | 224 | 2.6 | 7.0 | 0.00 | 0.07 | 0.00 | 83 | 1018.0 |
| 20260903072559 | 68 | 261 | 1.7 | 7.0 | 0.00 | 0.07 | 0.00 | 83 | 1018.0 |
| 20260903072059 | 68 | 238 | 2.6 | 6.1 | 0.00 | 0.07 | 0.00 | 84 | 1017.9 |
| 20260903071608 | 68 | 234 | 2.6 | 5.2 | 0.00 | 0.07 | 0.00 | 84 | 1017.8 |
| 20260903071058 | 68 | 223 | 2.6 | 5.2 | 0.00 | 0.07 | 0.00 | 84 | 1017.8 |
| 20260903070602 | 67 | 234 | 1.7 | 5.2 | 0.00 | 0.07 | 0.00 | 84 | 1017.6 |
| 20260903070126 | 67 | 214 | 1.7 | 3.5 | 0.00 | 0.07 | 0.00 | 85 | 1017.6 |
| 20260903065603 | 67 | 218 | 0.9 | 2.6 | 0.00 | 0.07 | 0.00 | 86 | 1017.6 |
| 20260903065058 | 67 | 228 | 0.0 | 2.6 | 0.00 | 0.07 | 0.00 | 86 | 1017.7 |
| 20260903064624 | 67 | 0 | 0.0 | 2.6 | 0.00 | 0.07 | 0.00 | 85 | 1017.5 |
| 20260903064059 | 67 | 0 | 0.0 | 2.6 | 0.00 | 0.07 | 0.00 | 86 | 1017.6 |
| 20260903063559 | 67 | 0 | 0.0 | 4.3 | 0.00 | 0.07 | 0.00 | 86 | 1017.5 |
| 20260903063109 | 67 | 246 | 1.7 | 7.8 | 0.00 | 0.07 | 0.00 | 86 | 1017.4 |
| 20260903062602 | 67 | 271 | 1.7 | 7.8 | 0.00 | 0.07 | 0.00 | 86 | 1017.4 |
| 20260903062102 | 67 | 360 | 2.6 | 8.7 | 0.00 | 0.07 | 0.00 | 86 | 1017.5 |
| 20260903061608 | 67 | 273 | 3.5 | 9.6 | 0.00 | 0.07 | 0.00 | 86 | 1017.4 |
| 20260903061058 | 67 | 294 | 4.3 | 9.6 | 0.00 | 0.07 | 0.00 | 86 | 1017.3 |
| 20260903060559 | 67 | 294 | 3.5 | 9.6 | 0.00 | 0.07 | 0.00 | 86 | 1017.4 |
| 20260903060111 | 67 | 275 | 4.3 | 9.6 | 0.00 | 0.07 | 0.00 | 85 | 1017.5 |
| 20260903055603 | 67 | 284 | 5.2 | 13.0 | 0.00 | 0.07 | 0.00 | 85 | 1017.5 |
| 20260903055059 | 67 | 271 | 5.2 | 13.0 | 0.00 | 0.07 | 0.00 | 84 | 1017.6 |
| 20260903054616 | 67 | 259 | 5.2 | 12.2 | 0.00 | 0.07 | 0.00 | 84 | 1017.6 |
| 20260903054059 | 67 | 311 | 6.1 | 12.2 | 0.00 | 0.07 | 0.00 | 84 | 1017.7 |
| 20260903053601 | 67 | 296 | 5.2 | 13.9 | 0.00 | 0.07 | 0.00 | 83 | 1017.5 |
| 20260903053103 | 67 | 267 | 6.1 | 13.9 | 0.00 | 0.07 | 0.00 | 84 | 1017.6 |
| 20260903052559 | 67 | 279 | 6.1 | 13.9 | 0.00 | 0.07 | 0.00 | 84 | 1017.7 |
| 20260903052101 | 67 | 271 | 6.1 | 13.0 | 0.00 | 0.07 | 0.00 | 85 | 1017.6 |
| 20260903051603 | 67 | 257 | 7.0 | 13.0 | 0.00 | 0.07 | 0.00 | 85 | 1017.4 |
| 20260903051057 | 67 | 294 | 5.2 | 11.3 | 0.00 | 0.07 | 0.00 | 85 | 1017.5 |
| 20260903050557 | 67 | 290 | 5.2 | 10.4 | 0.00 | 0.07 | 0.00 | 85 | 1017.5 |
| 20260903050110 | 67 | 312 | 4.3 | 9.6 | 0.00 | 0.07 | 0.00 | 85 | 1017.3 |
| 20260903045559 | 67 | 277 | 3.5 | 9.6 | 0.00 | 0.07 | 0.00 | 86 | 1017.3 |
| 20260903045100 | 67 | 286 | 4.3 | 7.8 | 0.00 | 0.07 | 0.00 | 86 | 1017.3 |
| 20260903044603 | 67 | 289 | 3.5 | 7.8 | 0.00 | 0.07 | 0.00 | 88 | 1017.3 |
| 20260903044104 | 67 | 269 | 3.5 | 8.7 | 0.00 | 0.07 | 0.00 | 88 | 1017.0 |
| 20260903043601 | 67 | 320 | 4.3 | 8.7 | 0.00 | 0.07 | 0.00 | 89 | 1017.1 |
| 20260903043104 | 67 | 287 | 4.3 | 8.7 | 0.00 | 0.07 | 0.00 | 89 | 1017.1 |
| 20260903042601 | 67 | 271 | 3.5 | 11.3 | 0.00 | 0.07 | 0.00 | 89 | 1016.9 |
| 20260903042100 | 67 | 285 | 5.2 | 12.2 | 0.00 | 0.07 | 0.00 | 89 | 1017.0 |
| 20260903041607 | 67 | 296 | 7.8 | 12.2 | 0.00 | 0.07 | 0.00 | 89 | 1017.1 |
| 20260903041059 | 67 | 271 | 5.2 | 9.6 | 0.00 | 0.07 | 0.00 | 88 | 1017.0 |
| 20260903040559 | 67 | 263 | 3.5 | 9.6 | 0.00 | 0.07 | 0.00 | 88 | 1017.1 |
| 20260903040107 | 67 | 253 | 4.3 | 11.3 | 0.00 | 0.07 | 0.00 | 88 | 1016.9 |
| 20260903035559 | 67 | 316 | 4.3 | 11.3 | 0.00 | 0.07 | 0.00 | 88 | 1017.0 |
| 20260903035059 | 67 | 238 | 4.3 | 12.2 | 0.00 | 0.07 | 0.00 | 88 | 1016.8 |
| 20260903034604 | 67 | 275 | 4.3 | 12.2 | 0.00 | 0.07 | 0.00 | 88 | 1016.8 |
| 20260903034100 | 67 | 240 | 5.2 | 10.4 | 0.00 | 0.07 | 0.00 | 87 | 1016.8 |
| 20260903033559 | 67 | 292 | 3.5 | 10.4 | 0.00 | 0.07 | 0.00 | 87 | 1016.9 |
| 20260903033105 | 67 | 296 | 6.1 | 13.0 | 0.00 | 0.07 | 0.00 | 87 | 1016.9 |
| 20260903032600 | 67 | 296 | 5.2 | 13.0 | 0.00 | 0.07 | 0.00 | 87 | 1016.9 |
| 20260903032058 | 68 | 273 | 6.1 | 13.0 | 0.00 | 0.07 | 0.00 | 86 | 1016.9 |
| 20260903031615 | 67 | 253 | 4.3 | 11.3 | 0.00 | 0.07 | 0.00 | 85 | 1016.8 |
| 20260903031101 | 67 | 263 | 4.3 | 10.4 | 0.00 | 0.07 | 0.00 | 85 | 1016.8 |
| 20260903030559 | 67 | 237 | 6.1 | 10.4 | 0.00 | 0.07 | 0.00 | 85 | 1016.8 |
| 20260903030135 | 67 | 228 | 3.5 | 9.6 | 0.00 | 0.07 | 0.00 | 86 | 1016.7 |
| 20260903025600 | 66 | 244 | 5.2 | 9.6 | 0.00 | 0.07 | 0.00 | 86 | 1016.8 |
| 20260903025059 | 66 | 233 | 2.6 | 4.3 | 0.00 | 0.07 | 0.00 | 87 | 1016.8 |
| 20260903024603 | 66 | 196 | 0.9 | 4.3 | 0.00 | 0.07 | 0.00 | 87 | 1016.7 |
| 20260903024059 | 66 | 192 | 1.7 | 4.3 | 0.00 | 0.07 | 0.00 | 86 | 1016.7 |
| 20260903023602 | 66 | 215 | 2.6 | 6.1 | 0.00 | 0.07 | 0.00 | 86 | 1016.8 |
| 20260903023113 | 66 | 213 | 2.6 | 6.1 | 0.00 | 0.07 | 0.00 | 86 | 1016.8 |
| 20260903022559 | 67 | 200 | 2.6 | 6.1 | 0.00 | 0.07 | 0.00 | 86 | 1016.7 |
| 20260903022058 | 67 | 200 | 2.6 | 5.2 | 0.00 | 0.07 | 0.00 | 86 | 1016.6 |
| 20260903021605 | 67 | 225 | 2.6 | 7.8 | 0.00 | 0.07 | 0.00 | 86 | 1016.7 |
| 20260903021100 | 67 | 194 | 2.6 | 7.8 | 0.00 | 0.07 | 0.00 | 86 | 1016.8 |
| 20260903020600 | 67 | 215 | 2.6 | 7.0 | 0.00 | 0.07 | 0.00 | 86 | 1016.8 |
| 20260903020108 | 67 | 192 | 2.6 | 7.0 | 0.00 | 0.07 | 0.00 | 86 | 1016.7 |
| 20260903015559 | 67 | 196 | 2.6 | 7.0 | 0.00 | 0.07 | 0.00 | 86 | 1017.0 |
| 20260903015058 | 67 | 201 | 3.5 | 7.0 | 0.00 | 0.07 | 0.00 | 86 | 1016.9 |
| 20260903014614 | 67 | 204 | 3.5 | 7.0 | 0.00 | 0.07 | 0.00 | 86 | 1017.0 |
| 20260903014101 | 67 | 213 | 3.5 | 7.0 | 0.00 | 0.07 | 0.00 | 86 | 1017.0 |
| 20260903013559 | 67 | 193 | 2.6 | 7.0 | 0.00 | 0.07 | 0.00 | 86 | 1016.8 |
| 20260903013104 | 67 | 206 | 4.3 | 7.0 | 0.00 | 0.07 | 0.00 | 86 | 1017.0 |
| 20260903012558 | 67 | 221 | 3.5 | 6.1 | 0.00 | 0.07 | 0.00 | 86 | 1017.0 |
| 20260903012059 | 67 | 192 | 3.5 | 6.1 | 0.00 | 0.07 | 0.00 | 85 | 1016.9 |
| 20260903011607 | 67 | 203 | 2.6 | 5.2 | 0.00 | 0.07 | 0.00 | 85 | 1016.8 |
| 20260903011059 | 67 | 201 | 1.7 | 6.1 | 0.00 | 0.07 | 0.00 | 85 | 1017.0 |
| 20260903010558 | 67 | 213 | 1.7 | 6.1 | 0.00 | 0.07 | 0.00 | 85 | 1016.8 |
| 20260903010107 | 67 | 205 | 3.5 | 9.6 | 0.00 | 0.07 | 0.00 | 85 | 1016.7 |
| 20260903005559 | 67 | 211 | 3.5 | 10.4 | 0.00 | 0.07 | 0.00 | 85 | 1016.8 |
| 20260903005100 | 67 | 222 | 4.3 | 10.4 | 0.00 | 0.07 | 0.00 | 85 | 1017.0 |
| 20260903004606 | 67 | 205 | 2.6 | 6.1 | 0.00 | 0.07 | 0.00 | 85 | 1016.8 |
| 20260903004059 | 67 | 204 | 1.7 | 5.2 | 0.00 | 0.07 | 0.00 | 85 | 1017.1 |
| 20260903003559 | 67 | 210 | 2.6 | 5.2 | 0.00 | 0.07 | 0.00 | 85 | 1017.1 |
| 20260903003109 | 67 | 208 | 1.7 | 5.2 | 0.00 | 0.07 | 0.00 | 85 | 1017.0 |
| 20260903002558 | 67 | 222 | 2.6 | 7.0 | 0.00 | 0.07 | 0.00 | 85 | 1017.1 |
| 20260903002100 | 67 | 198 | 2.6 | 8.7 | 0.00 | 0.07 | 0.00 | 84 | 1017.3 |
| 20260903001611 | 67 | 212 | 3.5 | 8.7 | 0.00 | 0.07 | 0.00 | 84 | 1017.2 |
| 20260903001103 | 67 | 227 | 3.5 | 7.8 | 0.00 | 0.07 | 0.00 | 84 | 1017.1 |
| 20260903000559 | 67 | 196 | 4.3 | 7.8 | 0.00 | 0.07 | 0.00 | 84 | 1017.1 |
| 20260903000110 | 67 | 192 | 2.6 | 6.1 | 0.00 | 0.07 | 0.00 | 84 | 1017.0 |
| 20260902235559 | 67 | 175 | 2.6 | 7.0 | 0.00 | 0.07 | 0.00 | 84 | 1017.1 |
| 20260902235059 | 67 | 194 | 3.5 | 7.0 | 0.00 | 0.07 | 0.00 | 84 | 1017.1 |
| 20260902234602 | 67 | 188 | 4.3 | 7.8 | 0.00 | 0.07 | 0.00 | 84 | 1017.3 |
| 20260902234059 | 67 | 215 | 3.5 | 8.7 | 0.00 | 0.07 | 0.00 | 84 | 1017.5 |
| 20260902233559 | 67 | 192 | 3.5 | 9.6 | 0.00 | 0.07 | 0.00 | 84 | 1017.4 |
| 20260902233106 | 67 | 199 | 4.3 | 9.6 | 0.00 | 0.07 | 0.00 | 84 | 1017.6 |
| 20260902232558 | 67 | 187 | 3.5 | 8.7 | 0.00 | 0.07 | 0.00 | 84 | 1017.5 |
| 20260902232058 | 67 | 198 | 3.5 | 8.7 | 0.00 | 0.07 | 0.00 | 84 | 1017.4 |
| 20260902231603 | 67 | 199 | 3.5 | 7.8 | 0.00 | 0.07 | 0.00 | 84 | 1017.5 |
| 20260902231059 | 67 | 206 | 4.3 | 7.8 | 0.00 | 0.07 | 0.00 | 84 | 1017.5 |
| 20260902230559 | 67 | 210 | 5.2 | 7.8 | 0.00 | 0.07 | 0.00 | 84 | 1017.5 |
| 20260902230108 | 67 | 220 | 3.5 | 7.8 | 0.00 | 0.07 | 0.00 | 84 | 1017.6 |
| 20260902225559 | 67 | 228 | 3.5 | 8.7 | 0.00 | 0.07 | 0.07 | 84 | 1017.5 |
| 20260902225102 | 67 | 223 | 4.3 | 8.7 | 0.00 | 0.07 | 0.07 | 83 | 1017.5 |
| 20260902224607 | 67 | 192 | 4.3 | 8.7 | 0.00 | 0.07 | 0.07 | 83 | 1017.6 |
| 20260902224059 | 67 | 196 | 5.2 | 8.7 | 0.00 | 0.07 | 0.07 | 83 | 1017.6 |
| 20260902223559 | 67 | 207 | 4.3 | 8.7 | 0.00 | 0.07 | 0.07 | 83 | 1017.5 |
| 20260902223102 | 67 | 213 | 3.5 | 7.0 | 0.00 | 0.07 | 0.07 | 83 | 1017.5 |
| 20260902222558 | 67 | 223 | 3.5 | 7.0 | 0.00 | 0.07 | 0.07 | 83 | 1017.6 |
| 20260902222059 | 67 | 195 | 3.5 | 8.7 | 0.00 | 0.07 | 0.07 | 83 | 1017.6 |
| 20260902221623 | 67 | 223 | 4.3 | 9.6 | 0.00 | 0.07 | 0.07 | 83 | 1017.7 |
| 20260902221059 | 67 | 205 | 3.5 | 9.6 | 0.00 | 0.07 | 0.07 | 83 | 1017.5 |
| 20260902220559 | 67 | 214 | 3.5 | 9.6 | 0.00 | 0.07 | 0.07 | 83 | 1017.4 |
| 20260902220110 | 67 | 235 | 4.3 | 9.6 | 0.00 | 0.07 | 0.07 | 83 | 1017.6 |
| 20260902215600 | 67 | 205 | 4.3 | 9.6 | 0.00 | 0.07 | 0.07 | 83 | 1017.5 |
| 20260902215058 | 67 | 229 | 3.5 | 9.6 | 0.00 | 0.07 | 0.07 | 83 | 1017.5 |
| 20260902214607 | 67 | 252 | 4.3 | 7.8 | 0.00 | 0.07 | 0.07 | 83 | 1017.6 |
| 20260902214059 | 67 | 242 | 3.5 | 12.2 | 0.00 | 0.07 | 0.07 | 83 | 1017.5 |
| 20260902213558 | 67 | 229 | 5.2 | 12.2 | 0.00 | 0.07 | 0.07 | 83 | 1017.3 |
| 20260902213104 | 67 | 213 | 3.5 | 7.8 | 0.00 | 0.07 | 0.07 | 83 | 1017.5 |
| 20260902212558 | 67 | 215 | 3.5 | 7.8 | 0.00 | 0.07 | 0.07 | 83 | 1017.5 |
| 20260902212059 | 67 | 229 | 1.7 | 6.1 | 0.00 | 0.07 | 0.07 | 83 | 1017.4 |
| 20260902211603 | 67 | 223 | 2.6 | 6.1 | 0.00 | 0.07 | 0.07 | 83 | 1017.5 |
| 20260902211058 | 67 | 228 | 3.5 | 7.0 | 0.00 | 0.07 | 0.07 | 83 | 1017.5 |
| 20260902210558 | 67 | 219 | 1.7 | 7.0 | 0.00 | 0.07 | 0.07 | 83 | 1017.5 |
| 20260902210103 | 67 | 233 | 3.5 | 7.0 | 0.00 | 0.07 | 0.07 | 83 | 1017.5 |
| 20260902205559 | 67 | 239 | 3.5 | 9.6 | 0.00 | 0.07 | 0.07 | 83 | 1017.3 |
| 20260902205059 | 67 | 229 | 5.2 | 9.6 | 0.00 | 0.07 | 0.07 | 82 | 1017.3 |
| 20260902204615 | 67 | 243 | 5.2 | 9.6 | 0.00 | 0.07 | 0.07 | 82 | 1017.4 |
| 20260902204059 | 67 | 212 | 4.3 | 8.7 | 0.00 | 0.07 | 0.07 | 82 | 1017.3 |
| 20260902203558 | 67 | 225 | 3.5 | 10.4 | 0.00 | 0.07 | 0.07 | 82 | 1017.3 |
| 20260902203103 | 67 | 229 | 5.2 | 10.4 | 0.00 | 0.07 | 0.07 | 82 | 1017.2 |
| 20260902202602 | 67 | 207 | 5.2 | 8.7 | 0.00 | 0.07 | 0.07 | 82 | 1017.3 |
| 20260902202059 | 68 | 223 | 2.6 | 8.7 | 0.00 | 0.07 | 0.07 | 82 | 1017.3 |
| 20260902201601 | 68 | 224 | 3.5 | 8.7 | 0.00 | 0.07 | 0.07 | 82 | 1017.4 |
| 20260902201059 | 68 | 232 | 3.5 | 9.6 | 0.00 | 0.07 | 0.07 | 82 | 1017.4 |
| 20260902200558 | 68 | 263 | 4.3 | 9.6 | 0.00 | 0.07 | 0.07 | 82 | 1017.5 |
| 20260902200111 | 68 | 234 | 4.3 | 12.2 | 0.00 | 0.07 | 0.07 | 82 | 1017.5 |
| 20260902195603 | 68 | 238 | 4.3 | 12.2 | 0.00 | 0.07 | 0.07 | 82 | 1017.3 |
| 20260902195100 | 68 | 225 | 4.3 | 8.7 | 0.00 | 0.07 | 0.07 | 82 | 1017.5 |
| 20260902194625 | 67 | 251 | 4.3 | 9.6 | 0.00 | 0.07 | 0.07 | 82 | 1017.5 |
| 20260902194059 | 67 | 279 | 3.5 | 12.2 | 0.00 | 0.07 | 0.07 | 82 | 1017.3 |
| 20260902193601 | 67 | 243 | 4.3 | 13.9 | 0.00 | 0.07 | 0.07 | 82 | 1017.1 |
| 20260902193103 | 68 | 250 | 7.0 | 13.9 | 0.00 | 0.07 | 0.07 | 82 | 1016.9 |
| 20260902192558 | 67 | 225 | 4.3 | 10.4 | 0.00 | 0.07 | 0.07 | 82 | 1016.8 |
| 20260902192059 | 68 | 238 | 3.5 | 10.4 | 0.00 | 0.07 | 0.07 | 82 | 1017.0 |
| 20260902191608 | 68 | 215 | 5.2 | 10.4 | 0.00 | 0.07 | 0.07 | 81 | 1016.9 |
| 20260902191058 | 68 | 248 | 5.2 | 14.8 | 0.00 | 0.07 | 0.07 | 82 | 1016.9 |
| 20260902190601 | 68 | 218 | 7.0 | 14.8 | 0.00 | 0.07 | 0.07 | 82 | 1016.9 |
| 20260902190104 | 68 | 286 | 4.3 | 12.2 | 0.00 | 0.07 | 0.07 | 82 | 1016.8 |
| 20260902185558 | 68 | 244 | 5.2 | 12.2 | 0.00 | 0.07 | 0.07 | 83 | 1016.9 |
| 20260902185103 | 68 | 231 | 4.3 | 11.3 | 0.00 | 0.07 | 0.07 | 82 | 1016.9 |
| 20260902184608 | 68 | 227 | 3.5 | 12.2 | 0.00 | 0.07 | 0.07 | 81 | 1016.8 |
| 20260902184058 | 68 | 255 | 5.2 | 12.2 | 0.00 | 0.07 | 0.07 | 81 | 1016.9 |
| 20260902183558 | 69 | 251 | 6.1 | 12.2 | 0.00 | 0.07 | 0.07 | 80 | 1016.8 |
| 20260902183140 | 69 | 225 | 6.1 | 12.2 | 0.00 | 0.07 | 0.07 | 81 | 1016.9 |
| 20260902182601 | 69 | 228 | 5.2 | 12.2 | 0.00 | 0.07 | 0.07 | 81 | 1016.8 |
| 20260902182059 | 69 | 261 | 3.5 | 12.2 | 0.00 | 0.07 | 0.07 | 82 | 1016.8 |
| 20260902181614 | 69 | 249 | 4.3 | 9.6 | 0.00 | 0.07 | 0.07 | 82 | 1016.8 |
| 20260902181058 | 69 | 261 | 2.6 | 7.8 | 0.00 | 0.07 | 0.07 | 84 | 1016.9 |
| 20260902180559 | 69 | 239 | 2.6 | 8.7 | 0.00 | 0.07 | 0.07 | 84 | 1016.7 |
| 20260902180109 | 69 | 308 | 2.6 | 10.4 | 0.00 | 0.07 | 0.07 | 84 | 1016.7 |
| 20260902175559 | 69 | 284 | 4.3 | 10.4 | 0.00 | 0.07 | 0.07 | 84 | 1016.8 |
| 20260902175100 | 69 | 286 | 4.3 | 13.0 | 0.00 | 0.07 | 0.07 | 84 | 1016.6 |
| 20260902174604 | 69 | 296 | 4.3 | 13.0 | 0.00 | 0.07 | 0.07 | 84 | 1016.7 |
| 20260902174057 | 69 | 279 | 5.2 | 13.0 | 0.00 | 0.07 | 0.07 | 84 | 1016.7 |
| 20260902173559 | 69 | 268 | 5.2 | 9.6 | 0.00 | 0.07 | 0.07 | 85 | 1016.7 |
| 20260902173108 | 69 | 237 | 4.3 | 12.2 | 0.00 | 0.07 | 0.07 | 84 | 1016.7 |
| 20260902172559 | 69 | 360 | 2.6 | 12.2 | 0.00 | 0.07 | 0.07 | 83 | 1016.6 |
| 20260902172100 | 69 | 269 | 6.1 | 12.2 | 0.00 | 0.07 | 0.07 | 83 | 1016.6 |
| 20260902171628 | 69 | 252 | 2.6 | 8.7 | 0.00 | 0.07 | 0.07 | 85 | 1016.6 |
| 20260902171056 | 69 | 291 | 5.2 | 8.7 | 0.00 | 0.07 | 0.07 | 85 | 1016.5 |
| 20260902170557 | 69 | 311 | 5.2 | 10.4 | 0.00 | 0.07 | 0.07 | 85 | 1016.6 |
| 20260902170111 | 69 | 271 | 4.3 | 11.3 | 0.00 | 0.07 | 0.07 | 84 | 1016.7 |
| 20260902165558 | 69 | 278 | 4.3 | 11.3 | 0.00 | 0.07 | 0.07 | 83 | 1016.6 |
| 20260902165101 | 69 | 278 | 4.3 | 11.3 | 0.00 | 0.07 | 0.07 | 84 | 1016.7 |
| 20260902164633 | 70 | 270 | 6.1 | 10.4 | 0.00 | 0.07 | 0.07 | 84 | 1016.7 |
| 20260902164059 | 70 | 360 | 4.3 | 10.4 | 0.00 | 0.07 | 0.07 | 84 | 1016.6 |
| 20260902163559 | 70 | 302 | 5.2 | 9.6 | 0.00 | 0.07 | 0.07 | 84 | 1016.8 |
| 20260902163107 | 70 | 271 | 2.6 | 8.7 | 0.00 | 0.07 | 0.07 | 86 | 1016.7 |
| 20260902162556 | 69 | 227 | 2.6 | 9.6 | 0.00 | 0.07 | 0.07 | 86 | 1016.6 |
| 20260902162058 | 69 | 300 | 4.3 | 12.2 | 0.00 | 0.07 | 0.07 | 86 | 1016.7 |
| 20260902161605 | 69 | 360 | 6.1 | 12.2 | 0.00 | 0.07 | 0.07 | 85 | 1016.6 |
| 20260902161101 | 70 | 293 | 6.1 | 12.2 | 0.00 | 0.07 | 0.07 | 86 | 1016.7 |
| 20260902160600 | 70 | 265 | 5.2 | 10.4 | 0.00 | 0.07 | 0.07 | 86 | 1016.5 |
| 20260902160112 | 70 | 296 | 4.3 | 10.4 | 0.00 | 0.07 | 0.07 | 86 | 1016.4 |
| 20260902155602 | 70 | 284 | 6.1 | 10.4 | 0.00 | 0.07 | 0.07 | 86 | 1016.4 |
| 20260902155103 | 70 | 313 | 6.1 | 8.7 | 0.00 | 0.07 | 0.07 | 87 | 1016.4 |
| 20260902154604 | 70 | 289 | 3.5 | 7.8 | 0.03 | 0.07 | 0.07 | 87 | 1016.4 |
| 20260902154102 | 70 | 290 | 3.5 | 8.7 | 0.03 | 0.07 | 0.07 | 87 | 1016.4 |
| 20260902153603 | 70 | 292 | 2.6 | 8.7 | 0.03 | 0.07 | 0.07 | 87 | 1016.3 |
| 20260902153103 | 70 | 244 | 3.5 | 7.0 | 0.03 | 0.07 | 0.07 | 88 | 1016.5 |
| 20260902152604 | 70 | 234 | 2.6 | 7.0 | 0.03 | 0.07 | 0.07 | 90 | 1016.5 |
| 20260902152059 | 70 | 235 | 3.5 | 8.7 | 0.03 | 0.07 | 0.07 | 88 | 1016.6 |
| 20260902151604 | 70 | 229 | 4.3 | 9.6 | 0.03 | 0.07 | 0.07 | 89 | 1016.5 |
| 20260902151105 | 69 | 246 | 4.3 | 12.2 | 0.03 | 0.07 | 0.07 | 90 | 1016.6 |
| 20260902150600 | 69 | 231 | 5.2 | 12.2 | 0.03 | 0.07 | 0.07 | 89 | 1016.7 |
| 20260902150109 | 69 | 232 | 6.1 | 10.4 | 0.03 | 0.07 | 0.07 | 90 | 1016.7 |
| 20260902145601 | 68 | 227 | 4.3 | 13.0 | 0.03 | 0.06 | 0.06 | 89 | 1016.7 |
| 20260902145102 | 69 | 224 | 5.2 | 15.6 | 0.03 | 0.06 | 0.06 | 87 | 1016.8 |
| 20260902144610 | 69 | 217 | 6.1 | 15.6 | 0.00 | 0.03 | 0.03 | 85 | 1016.7 |
| 20260902144057 | 70 | 233 | 7.0 | 15.6 | 0.00 | 0.03 | 0.03 | 82 | 1016.6 |
| 20260902143602 | 71 | 208 | 7.8 | 15.6 | 0.00 | 0.03 | 0.03 | 78 | 1016.4 |
| 20260902143109 | 71 | 201 | 7.8 | 15.6 | 0.00 | 0.03 | 0.03 | 79 | 1016.5 |
| 20260902142601 | 71 | 197 | 8.7 | 15.6 | 0.00 | 0.03 | 0.03 | 77 | 1016.5 |
| 20260902142101 | 71 | 190 | 8.7 | 15.6 | 0.00 | 0.03 | 0.03 | 77 | 1016.4 |
| 20260902141602 | 72 | 204 | 6.1 | 11.3 | 0.00 | 0.03 | 0.03 | 78 | 1016.4 |
| 20260902141101 | 72 | 198 | 6.1 | 13.0 | 0.00 | 0.03 | 0.03 | 77 | 1016.6 |
| 20260902140558 | 72 | 190 | 7.0 | 15.6 | 0.00 | 0.03 | 0.03 | 77 | 1016.5 |
| 20260902140105 | 72 | 231 | 7.0 | 16.5 | 0.00 | 0.03 | 0.03 | 76 | 1016.6 |
| 20260902135557 | 72 | 208 | 7.8 | 17.4 | 0.00 | 0.03 | 0.03 | 76 | 1016.5 |
| 20260902135102 | 73 | 214 | 7.8 | 17.4 | 0.00 | 0.03 | 0.03 | 75 | 1016.6 |
| 20260902134607 | 73 | 204 | 9.6 | 17.4 | 0.00 | 0.03 | 0.03 | 74 | 1016.6 |
| 20260902134058 | 74 | 186 | 8.7 | 18.2 | 0.00 | 0.03 | 0.03 | 74 | 1016.6 |
| 20260902133557 | 74 | 207 | 10.4 | 18.2 | 0.00 | 0.03 | 0.03 | 73 | 1016.7 |
| 20260902133104 | 74 | 188 | 10.4 | 18.2 | 0.00 | 0.03 | 0.03 | 74 | 1016.7 |
| 20260902132601 | 73 | 185 | 7.8 | 17.4 | 0.00 | 0.03 | 0.03 | 75 | 1016.7 |
| 20260902132116 | 73 | 213 | 8.7 | 16.5 | 0.00 | 0.03 | 0.03 | 77 | 1016.7 |
| 20260902131612 | 73 | 236 | 10.4 | 18.2 | 0.00 | 0.03 | 0.03 | 74 | 1017.0 |
| 20260902131057 | 73 | 220 | 9.6 | 20.9 | 0.00 | 0.03 | 0.03 | 76 | 1017.0 |
| 20260902130557 | 72 | 198 | 9.6 | 20.9 | 0.00 | 0.03 | 0.03 | 76 | 1016.9 |
| 20260902130113 | 71 | 209 | 10.4 | 19.1 | 0.00 | 0.03 | 0.03 | 77 | 1017.1 |
| 20260902125559 | 72 | 199 | 9.6 | 17.4 | 0.00 | 0.03 | 0.03 | 78 | 1017.0 |
| 20260902125101 | 71 | 198 | 8.7 | 15.6 | 0.00 | 0.03 | 0.03 | 78 | 1017.0 |
| 20260902124604 | 71 | 209 | 7.8 | 13.0 | 0.00 | 0.03 | 0.03 | 78 | 1016.9 |
| 20260902124100 | 71 | 211 | 7.8 | 19.1 | 0.00 | 0.03 | 0.03 | 80 | 1017.0 |
| 20260902123557 | 70 | 186 | 8.7 | 19.1 | 0.00 | 0.03 | 0.03 | 79 | 1017.2 |
| 20260902123114 | 70 | 198 | 7.8 | 17.4 | 0.00 | 0.03 | 0.03 | 78 | 1017.1 |
| 20260902122557 | 70 | 202 | 8.7 | 17.4 | 0.00 | 0.03 | 0.03 | 79 | 1017.1 |
| 20260902122057 | 71 | 213 | 10.4 | 20.0 | 0.00 | 0.03 | 0.03 | 78 | 1017.1 |